TimeCST,TemperatureF,Dew PointF,Humidity,Sea Level PressureIn,VisibilityMPH,Wind Direction,Wind SpeedMPH,Gust SpeedMPH,PrecipitationIn,Events,Conditions,WindDirDegrees,DateUTC
12:58 AM,62.1,54.1,75,30.11,10.0,South,6.9,-,N/A,,Overcast,170,2014-03-02 06:58:00
1:58 AM,59.9,54.5,82,30.10,10.0,SSE,6.9,-,N/A,,Clear,160,2014-03-02 07:58:00
2:58 AM,57.7,54.5,89,30.09,10.0,SSE,5.8,-,N/A,,Clear,160,2014-03-02 08:58:00
3:58 AM,54.1,53.6,98,30.10,10.0,SSE,4.6,-,N/A,,Clear,160,2014-03-02 09:58:00
4:31 AM,53.6,53.6,100,30.10,10.0,SE,5.8,-,N/A,,Partly Cloudy,140,2014-03-02 10:31:00
4:46 AM,51.8,51.8,100,30.10,10.0,SSE,6.9,-,N/A,,Mostly Cloudy,150,2014-03-02 10:46:00
4:58 AM,54.9,54.9,100,30.13,10.0,South,5.8,-,N/A,,Mostly Cloudy,170,2014-03-02 10:58:00
5:08 AM,57.2,57.2,100,30.12,10.0,SSE,8.1,-,N/A,,Overcast,160,2014-03-02 11:08:00
5:23 AM,57.2,57.2,100,30.12,10.0,South,10.4,-,N/A,,Overcast,170,2014-03-02 11:23:00
5:43 AM,57.2,57.2,100,30.13,10.0,South,9.2,-,N/A,,Overcast,190,2014-03-02 11:43:00
5:58 AM,57.9,57.9,100,30.14,10.0,South,8.1,-,N/A,,Overcast,180,2014-03-02 11:58:00
6:13 AM,59.0,59.0,100,30.14,10.0,South,6.9,-,N/A,,Overcast,180,2014-03-02 12:13:00
6:23 AM,59.0,57.2,94,30.14,10.0,South,6.9,-,N/A,,Overcast,180,2014-03-02 12:23:00
6:38 AM,59.0,57.2,94,30.14,10.0,South,5.8,-,N/A,,Overcast,180,2014-03-02 12:38:00
6:58 AM,58.8,57.7,96,30.16,10.0,South,6.9,-,N/A,,Overcast,170,2014-03-02 12:58:00
7:13 AM,59.0,57.2,94,30.15,10.0,South,6.9,-,N/A,,Overcast,170,2014-03-02 13:13:00
7:43 AM,59.0,57.2,94,30.15,10.0,SSE,5.8,-,N/A,,Overcast,150,2014-03-02 13:43:00
7:58 AM,60.3,57.2,90,30.17,10.0,South,6.9,-,N/A,,Overcast,190,2014-03-02 13:58:00
8:58 AM,63.0,56.8,80,30.16,10.0,South,9.2,-,N/A,,Overcast,170,2014-03-02 14:58:00
9:18 AM,64.4,57.2,77,30.15,10.0,South,12.7,19.6,N/A,,Overcast,190,2014-03-02 15:18:00
9:23 AM,64.4,57.2,77,30.15,10.0,South,15.0,19.6,N/A,,Overcast,180,2014-03-02 15:23:00
9:58 AM,64.9,56.3,74,30.16,10.0,South,15.0,-,N/A,,Overcast,170,2014-03-02 15:58:00
10:58 AM,68.4,56.7,66,30.14,10.0,SSW,8.1,-,N/A,,Mostly Cloudy,200,2014-03-02 16:58:00
11:33 AM,71.6,57.2,60,30.11,10.0,SSW,12.7,-,N/A,,Mostly Cloudy,210,2014-03-02 17:33:00
11:58 AM,72.1,57.0,59,30.10,10.0,SW,16.1,20.7,N/A,,Clear,220,2014-03-02 17:58:00
12:32 PM,73.4,57.2,57,30.06,10.0,SW,13.8,-,N/A,,Clear,230,2014-03-02 18:32:00
12:58 PM,74.7,57.2,54,30.04,10.0,South,13.8,23.0,N/A,,Clear,190,2014-03-02 18:58:00
1:58 PM,75.7,56.8,52,30.00,10.0,South,17.3,24.2,N/A,,Clear,180,2014-03-02 19:58:00
2:58 PM,76.5,56.5,50,29.97,10.0,South,17.3,23.0,N/A,,Scattered Clouds,180,2014-03-02 20:58:00
3:58 PM,74.8,55.2,50,29.96,10.0,SSW,9.2,18.4,N/A,,Scattered Clouds,200,2014-03-02 21:58:00
4:58 PM,74.7,54.9,50,29.94,10.0,South,13.8,-,N/A,,Mostly Cloudy,190,2014-03-02 22:58:00
5:58 PM,71.1,54.7,56,29.91,10.0,South,8.1,-,N/A,,Scattered Clouds,180,2014-03-02 23:58:00
6:58 PM,70.9,55.2,58,29.91,10.0,South,11.5,-,N/A,,Scattered Clouds,190,2014-03-03 00:58:00
7:58 PM,70.2,56.3,61,29.89,10.0,South,9.2,-,N/A,,Scattered Clouds,180,2014-03-03 01:58:00
8:38 PM,69.8,57.2,64,29.88,10.0,SSW,9.2,-,N/A,,Mostly Cloudy,200,2014-03-03 02:38:00
8:58 PM,68.7,56.3,64,29.89,10.0,North,12.7,-,N/A,,Overcast,360,2014-03-03 02:58:00
9:12 PM,57.2,46.4,67,29.89,10.0,North,9.2,-,N/A,Rain,Light Rain,350,2014-03-03 03:12:00
9:22 PM,55.4,48.2,77,29.88,9.0,North,11.5,-,N/A,Rain,Light Rain,360,2014-03-03 03:22:00
9:27 PM,53.6,46.4,77,29.88,10.0,North,8.1,-,N/A,,Mostly Cloudy,360,2014-03-03 03:27:00
9:32 PM,53.6,46.4,77,29.89,10.0,North,8.1,-,N/A,,Scattered Clouds,10,2014-03-03 03:32:00
9:58 PM,51.8,45.0,77,29.92,10.0,NNW,11.5,-,0.00,,Scattered Clouds,340,2014-03-03 03:58:00
10:03 PM,51.8,44.6,76,29.91,10.0,NNW,13.8,-,N/A,,Mostly Cloudy,340,2014-03-03 04:03:00
10:08 PM,51.8,44.6,76,29.92,10.0,NNW,10.4,-,N/A,,Mostly Cloudy,340,2014-03-03 04:08:00
10:13 PM,50.0,42.8,76,29.92,10.0,NNW,15.0,-,N/A,,Mostly Cloudy,330,2014-03-03 04:13:00
10:16 PM,50.0,42.8,76,29.92,10.0,NNW,13.8,-,N/A,Rain,Light Rain,340,2014-03-03 04:16:00
10:41 PM,46.4,42.8,87,29.93,10.0,North,12.7,-,N/A,Rain,Light Rain,350,2014-03-03 04:41:00
10:58 PM,45.1,41.9,88,29.93,10.0,North,9.2,-,0.01,Rain,Light Rain,350,2014-03-03 04:58:00
11:17 PM,44.6,41.0,87,29.90,10.0,NNE,6.9,-,N/A,,Light Drizzle,30,2014-03-03 05:17:00
11:19 PM,44.6,41.0,87,29.90,10.0,NNE,5.8,-,N/A,,Scattered Clouds,30,2014-03-03 05:19:00
11:29 PM,44.6,41.0,87,29.90,10.0,North,9.2,-,N/A,,Mostly Cloudy,10,2014-03-03 05:29:00
11:39 PM,44.6,41.0,87,29.91,10.0,North,9.2,-,N/A,,Mostly Cloudy,360,2014-03-03 05:39:00
11:44 PM,44.6,41.0,87,29.91,10.0,North,9.2,-,N/A,,Mostly Cloudy,350,2014-03-03 05:44:00
11:48 PM,44.6,41.0,87,29.91,10.0,North,9.2,-,N/A,Rain,Light Rain,360,2014-03-03 05:48:00
11:58 PM,43.5,40.5,89,29.92,10.0,North,8.1,-,0.01,Rain,Light Rain,360,2014-03-03 05:58:00
11:59 PM,42.8,41.0,93,29.91,10.0,North,8.1,-,N/A,,Overcast,360,2014-03-03 05:59:00